Simultaneous Nadir Overpasses (SNOs) Predictions

Prediction of SNOs between LANDSAT-8 and METOP-A Satellite Orbit:

Table of predicted SNOs for the next 14.0 days since TLE Epoch: 2/6/2021
Index Date (LANDSAT-8) Time (LANDSAT-8) Lat,Lon (LANDSAT-8) SZA (LANDSAT-8 ) Date (METOP-A) Time (METOP-A) Lat,Lon (METOP-A) SZA (METOP-A ) Distance(km) Time Diff (sec)
1 02/07/2021 14:37:43 81.43, 5.75 98.61 02/07/2021 14:37:17 81.43, 5.55 98.57 3.30 26
2 02/07/2021 15:27:10 -81.43, 173.26 81.42 02/07/2021 15:27:57 -81.42, 173.19 81.42 1.48 47
3 02/10/2021 10:11:58 81.43, 72.03 97.69 02/10/2021 10:11:39 81.42, 72.02 97.68 0.17 19
4 02/10/2021 11:01:25 -81.42,-120.43 82.34 02/10/2021 11:02:19 -81.42,-120.33 82.32 1.82 54
5 02/13/2021 05:46:13 81.42, 138.28 96.73 02/13/2021 05:46:01 81.42, 138.48 96.75 3.38 12
6 02/13/2021 06:35:40 -81.41, -54.15 83.30 02/13/2021 06:36:42 -81.42, -54.24 83.27 1.86 62
7 02/16/2021 01:20:27 81.42,-155.11 95.80 02/16/2021 01:20:23 81.42,-155.07 95.80 0.97 4
8 02/16/2021 02:09:54 -81.42, 12.48 84.23 02/16/2021 02:11:03 -81.41, 12.61 84.20 2.58 69
9 02/18/2021 20:05:14 -81.43, 103.79 85.16 02/18/2021 20:04:04 -81.42, 103.78 85.20 0.80 70
10 02/18/2021 20:54:41 81.41, -88.92 94.78 02/18/2021 20:54:45 81.43, -89.02 94.79 2.29 4



Historial Predications of SNOs between LANDSAT-8 and METOP-A
